Location: Newark
(55.8372°N, 37.1596°E)
Time: 11:58:53
(UTC+00:00)

Envisat - Pass Details

Date: 27 October 2019
Orbit: 764 x 766 km, 98.1° (Epoch: 17 November)

Event Time Altitude Azimuth Distance (km) Brightness Sun altitude
Rises 14:52:01 0° 152° (SSE) 3,226 6.1 -7.4°
Reaches altitude 10° 14:54:19 10° 150° (SSE) 2,303 5.3 -7.7°
Maximum altitude 14:59:20 66° 69° (ENE) 841 3.0 -8.4°
Drops below altitude 10° 15:04:24 10° 348° (NNW) 2,318 5.5 -9.1°
Sets 15:06:44 0° 346° (NNW) 3,248 6.3 -9.4°
